Location: Luxembourg
(49.6117°N, 6.1300°E)
Time: 22:40:42
(UTC+02:00)

Envisat - Pass Details

Date: 30 January 2019
Orbit: 764 x 766 km, 98.1° (Epoch: 21 October)

Event Time Altitude Azimuth Distance (km) Brightness Sun altitude
Rises 17:51:46 0° 125° (SE) 3,227 5.9 -4.5°
Reaches altitude 10° 17:54:27 10° 112° (ESE) 2,304 5.1 -4.9°
Maximum altitude 17:58:25 24° 60° (ENE) 1,568 4.1 -5.5°
Drops below altitude 10° 18:02:23 10° 9° (N) 2,315 5.2 -6.1°
Sets 18:05:05 0° 355° (N) 3,246 6.1 -6.5°
